• In Uzbekistan
  • List of Countries
  • For 7 days
  • Water Temperature
  • Weather Map
  • Weather Widgets
  • user-avatar
    Login

    Hourly Weather Tashkent

    Today, 5 June, Friday

    Time Temperature Precipitation Wind Pressure Humidity
    00:00 +30°C° 0 mm 2 mps 717 mmHg 23%
    01:00 +30°C° 0 mm 2 mps 717 mmHg 24%
    02:00 +29°C° 0 mm 3 mps 717 mmHg 26%
    03:00 +29°C° 0 mm 3 mps 717 mmHg 25%
    04:00 +29°C° 0 mm 3 mps 717 mmHg 25%
    05:00 +29°C° 0 mm 2 mps 716 mmHg 23%
    06:00 +30°C° 0.1 mm 3 mps 717 mmHg 24%
    07:00 +33°C° 0.1 mm 3 mps 717 mmHg 25%
    08:00 +34°C° 0.1 mm 3 mps 717 mmHg 25%
    09:00 +36°C° 0 mm 3 mps 717 mmHg 22%
    10:00 +37°C° 0 mm 3 mps 717 mmHg 19%
    11:00 +39°C° 0 mm 2 mps 718 mmHg 16%
    12:00 +40°C° 0 mm 2 mps 717 mmHg 15%
    13:00 +42°C° 0 mm 3 mps 717 mmHg 15%
    14:00 +42°C° 0 mm 3 mps 717 mmHg 14%
    15:00 +42°C° 0 mm 4 mps 717 mmHg 15%
    16:00 +41°C° 0 mm 5 mps 717 mmHg 16%
    17:00 +40°C° 0 mm 6 mps 717 mmHg 17%
    18:00 +38°C° 0 mm 6 mps 717 mmHg 23%
    19:00 +35°C° 0 mm 6 mps 717 mmHg 29%
    20:00 +33°C° 0 mm 6 mps 717 mmHg 35%
    21:00 +32°C° 0 mm 5 mps 717 mmHg 35%
    22:00 +30°C° 0 mm 4 mps 718 mmHg 35%
    23:00 +29°C° 0 mm 3 mps 718 mmHg 36%

    Tomorrow, 6 June, Saturday

    Time Temperature Precipitation Wind Pressure Humidity
    00:00 +28°C° 0 mm 3 mps 718 mmHg 37%
    01:00 +26°C° 0 mm 3 mps 718 mmHg 39%
    02:00 +25°C° 0 mm 2 mps 718 mmHg 40%
    03:00 +24°C° 0 mm 2 mps 718 mmHg 39%
    04:00 +24°C° 0 mm 2 mps 718 mmHg 39%
    05:00 +23°C° 0 mm 2 mps 718 mmHg 38%
    06:00 +24°C° 0 mm 2 mps 718 mmHg 36%
    07:00 +26°C° 0 mm 2 mps 719 mmHg 34%
    08:00 +27°C° 0 mm 2 mps 719 mmHg 32%
    09:00 +29°C° 0 mm 2 mps 719 mmHg 28%
    10:00 +31°C° 0 mm 3 mps 720 mmHg 24%
    11:00 +33°C° 0 mm 3 mps 720 mmHg 20%
    12:00 +34°C° 0 mm 3 mps 720 mmHg 18%
    13:00 +35°C° 0 mm 3 mps 719 mmHg 16%
    14:00 +36°C° 0 mm 3 mps 719 mmHg 14%
    15:00 +36°C° 0 mm 4 mps 719 mmHg 15%
    16:00 +36°C° 0 mm 4 mps 719 mmHg 16%
    17:00 +35°C° 0 mm 5 mps 719 mmHg 17%
    18:00 +33°C° 0 mm 4 mps 719 mmHg 21%
    19:00 +30°C° 0 mm 4 mps 719 mmHg 26%
    20:00 +27°C° 0 mm 3 mps 718 mmHg 31%
    21:00 +26°C° 0 mm 3 mps 719 mmHg 31%
    22:00 +25°C° 0 mm 2 mps 719 mmHg 32%
    23:00 +24°C° 0 mm 2 mps 719 mmHg 32%

    Day after tomorrow, 7 June, Sunday

    Time Temperature Precipitation Wind Pressure Humidity
    00:00 +24°C° 0 mm 2 mps 719 mmHg 32%
    01:00 +23°C° 0 mm 2 mps 718 mmHg 32%
    02:00 +23°C° 0 mm 2 mps 718 mmHg 32%
    03:00 +21°C° 0 mm 2 mps 718 mmHg 33%
    04:00 +20°C° 0 mm 2 mps 718 mmHg 34%
    05:00 +20°C° 0 mm 2 mps 718 mmHg 34%
    06:00 +21°C° 0 mm 2 mps 718 mmHg 32%
    07:00 +22°C° 0 mm 3 mps 719 mmHg 31%
    08:00 +24°C° 0 mm 3 mps 719 mmHg 29%
    09:00 +26°C° 0 mm 3 mps 719 mmHg 26%
    10:00 +28°C° 0 mm 3 mps 719 mmHg 22%
    11:00 +30°C° 0 mm 3 mps 719 mmHg 19%
    12:00 +31°C° 0 mm 3 mps 719 mmHg 17%
    13:00 +32°C° 0 mm 2 mps 719 mmHg 14%
    14:00 +34°C° 0 mm 2 mps 719 mmHg 12%
    15:00 +34°C° 0 mm 3 mps 719 mmHg 12%
    16:00 +34°C° 0 mm 3 mps 719 mmHg 12%
    17:00 +35°C° 0 mm 3 mps 718 mmHg 12%
    18:00 +33°C° 0 mm 3 mps 718 mmHg 15%
    19:00 +30°C° 0 mm 3 mps 718 mmHg 17%
    20:00 +28°C° 0 mm 2 mps 718 mmHg 20%
    21:00 +27°C° 0 mm 2 mps 718 mmHg 21%
    22:00 +26°C° 0 mm 2 mps 718 mmHg 22%
    23:00 +25°C° 0 mm 1 mps 718 mmHg 23%

    8 June, Monday

    Time Temperature Precipitation Wind Pressure Humidity
    00:00 +25°C° 0 mm 1 mps 718 mmHg 23%
    01:00 +25°C° 0 mm 1 mps 718 mmHg 24%
    02:00 +25°C° 0 mm 1 mps 718 mmHg 24%
    03:00 +24°C° 0 mm 1 mps 717 mmHg 25%
    04:00 +24°C° 0 mm 1 mps 717 mmHg 26%
    05:00 +23°C° 0 mm 1 mps 717 mmHg 26%
    06:00 +24°C° 0 mm 1 mps 718 mmHg 26%
    07:00 +26°C° 0 mm 1 mps 718 mmHg 26%
    08:00 +27°C° 0 mm 1 mps 718 mmHg 25%
    09:00 +28°C° 0 mm 1 mps 718 mmHg 23%
    10:00 +29°C° 0 mm 2 mps 719 mmHg 22%
    11:00 +31°C° 0 mm 2 mps 719 mmHg 20%
    12:00 +31°C° 0 mm 3 mps 719 mmHg 19%
    13:00 +33°C° 0 mm 3 mps 719 mmHg 19%
    14:00 +34°C° 0 mm 4 mps 719 mmHg 19%
    15:00 +33°C° 0 mm 4 mps 719 mmHg 21%
    16:00 +33°C° 0 mm 5 mps 719 mmHg 23%
    17:00 +32°C° 0 mm 5 mps 719 mmHg 25%
    18:00 +30°C° 0 mm 4 mps 719 mmHg 28%
    19:00 +28°C° 0 mm 4 mps 719 mmHg 31%
    20:00 +27°C° 0 mm 3 mps 719 mmHg 33%
    21:00 +26°C° 0 mm 3 mps 719 mmHg 35%
    22:00 +25°C° 0 mm 3 mps 719 mmHg 36%
    23:00 +24°C° 0 mm 3 mps 719 mmHg 37%

    9 June, Tuesday

    Time Temperature Precipitation Wind Pressure Humidity
    00:00 +24°C° 0 mm 3 mps 719 mmHg 38%
    01:00 +24°C° 0 mm 3 mps 719 mmHg 38%
    02:00 +22°C° 0 mm 3 mps 719 mmHg 38%
    03:00 +22°C° 0 mm 3 mps 719 mmHg 38%
    04:00 +22°C° 0 mm 3 mps 719 mmHg 39%
    05:00 +21°C° 0 mm 3 mps 718 mmHg 40%
    06:00 +24°C° 0 mm 2 mps 719 mmHg 37%
    07:00 +26°C° 0 mm 2 mps 719 mmHg 35%
    08:00 +28°C° 0 mm 2 mps 719 mmHg 32%
    09:00 +30°C° 0 mm 2 mps 719 mmHg 29%
    10:00 +31°C° 0 mm 3 mps 719 mmHg 26%
    11:00 +34°C° 0 mm 3 mps 719 mmHg 23%
    12:00 +34°C° 0 mm 3 mps 719 mmHg 22%
    13:00 +34°C° 0 mm 4 mps 719 mmHg 21%
    14:00 +35°C° 0 mm 4 mps 719 mmHg 20%
    15:00 +35°C° 0 mm 4 mps 719 mmHg 19%
    16:00 +34°C° 0 mm 4 mps 719 mmHg 18%
    17:00 +34°C° 0 mm 4 mps 719 mmHg 17%
    18:00 +31°C° 0 mm 3 mps 719 mmHg 18%
    19:00 +30°C° 0 mm 3 mps 719 mmHg 19%
    20:00 +28°C° 0 mm 2 mps 719 mmHg 20%
    21:00 +27°C° 0 mm 2 mps 719 mmHg 25%
    22:00 +25°C° 0 mm 2 mps 719 mmHg 29%
    23:00 +24°C° 0 mm 2 mps 719 mmHg 34%

    10 June, Wednesday

    Time Temperature Precipitation Wind Pressure Humidity
    00:00 +24°C° 0 mm 2 mps 719 mmHg 33%
    01:00 +24°C° 0 mm 2 mps 719 mmHg 32%
    02:00 +23°C° 0 mm 2 mps 719 mmHg 31%
    03:00 +23°C° 0 mm 1 mps 719 mmHg 32%
    04:00 +23°C° 0 mm 1 mps 719 mmHg 33%
    05:00 +22°C° 0 mm 1 mps 719 mmHg 33%
    06:00 +23°C° 0 mm 1 mps 720 mmHg 32%
    07:00 +25°C° 0 mm 2 mps 720 mmHg 32%
    08:00 +26°C° 0 mm 2 mps 721 mmHg 31%
    09:00 +28°C° 0 mm 3 mps 721 mmHg 29%
    10:00 +29°C° 0 mm 3 mps 721 mmHg 27%
    11:00 +30°C° 0 mm 3 mps 721 mmHg 25%
    12:00 +31°C° 0 mm 3 mps 721 mmHg 22%
    13:00 +33°C° 0 mm 4 mps 721 mmHg 20%
    14:00 +34°C° 0 mm 4 mps 721 mmHg 18%
    15:00 +33°C° 0 mm 4 mps 720 mmHg 18%
    16:00 +33°C° 0 mm 5 mps 720 mmHg 17%
    17:00 +33°C° 0 mm 5 mps 720 mmHg 17%
    18:00 +30°C° 0 mm 4 mps 720 mmHg 20%
    19:00 +28°C° 0 mm 3 mps 720 mmHg 23%
    20:00 +27°C° 0 mm 2 mps 720 mmHg 26%
    21:00 +26°C° 0 mm 2 mps 720 mmHg 27%
    22:00 +25°C° 0 mm 2 mps 720 mmHg 28%
    23:00 +24°C° 0 mm 1 mps 721 mmHg 29%
    Show more